DW9608 Weather Reports


time (UTC)temp
F
wind
direction
speed
knots
gust
knots
rain 1hr
in
rain 24hr
in
rain mn
in
humidity
%
barometer
mb
20260903072742 74 0.0 0.0 0.00 0.00 0.00 77 1017.6
20260903071651 74 0.0 0.0 0.00 0.00 0.00 77 1017.8
20260903070633 75 0.0 0.0 0.00 0.00 0.00 75 1018.0
20260903065622 75 0.0 0.0 0.00 0.00 0.00 73 1018.1
20260903064525 76 0.0 0.0 0.00 0.00 0.00 72 1018.2
20260903063449 77 0.0 0.0 0.00 0.00 0.00 70 1018.5
20260903062430 77 0.0 0.0 0.00 0.00 0.00 69 1018.6
20260903061352 78 0.0 0.0 0.00 0.00 0.00 68 1018.9
20260903060316 79 113 0.9 1.7 0.00 0.00 0.00 68 1018.9
20260903055251 79 266 1.7 2.6 0.00 0.00 0.00 69 1018.9
20260903054215 79 113 2.6 3.5 0.00 0.00 0.00 77 1018.0
20260903053210 78 0.0 0.0 0.00 0.00 0.00 78 1017.9
20260903052132 79 0.0 0.0 0.00 0.00 0.00 77 1017.8
20260903051115 79 0.0 0.0 0.00 0.00 0.00 77 1017.6
20260903050039 79 0.0 0.0 0.00 0.00 0.00 77 1017.4
20260903044959 79 0.0 0.0 0.00 0.00 0.00 77 1017.1
20260903043916 79 0.0 0.0 0.00 0.00 0.00 77 1017.2
20260903042858 79 0.0 0.0 0.00 0.00 0.00 77 1016.9
20260903041840 79 0.0 0.0 0.00 0.00 0.00 77 1016.8
20260903040756 79 113 0.0 0.9 0.00 0.00 0.00 77 1016.7
20260903035720 79 113 0.0 0.9 0.00 0.00 0.00 77 1016.6
20260903035246 0 0.0 0.0 0.00 0.00 0.00 1016.6
20260903034526 79 0.0 0.9 0.00 0.00 0.00 77 1016.6
20260903033449 79 0.0 0.0 0.00 0.00 0.00 76 1016.3
20260903032450 79 0.9 1.7 0.00 0.00 0.00 76 1016.3
20260903031347 79 0.9 1.7 0.00 0.00 0.00 76 1016.5
20260903030329 79 113 0.0 0.9 0.00 0.00 0.00 76 1016.9
20260903025252 79 0.0 0.0 0.00 0.00 0.00 76 1017.1
20260903024253 79 0.0 0.0 0.00 0.00 0.00 76 1017.2
20260903023155 80 0.0 0.0 0.00 0.00 0.00 76 1017.3
20260903022119 80 0.0 0.0 0.00 0.00 0.00 76 1017.3
20260903021121 80 0.0 0.0 0.00 0.00 0.00 76 1017.3
20260903020018 80 0.0 0.0 0.00 0.00 0.00 76 1017.4
20260903014947 80 0.0 0.0 0.00 0.00 0.00 76 1017.4
20260903013928 80 0.0 0.0 0.00 0.00 0.00 76 1017.4
20260903012852 80 0.0 0.0 0.00 0.00 0.00 76 1017.4
20260903011832 80 0.0 0.0 0.00 0.00 0.00 76 1017.5
20260903010801 81 0.0 0.0 0.00 0.00 0.00 75 1017.5
20260903005727 82 0.0 0.0 0.00 0.00 0.00 74 1017.3
20260903004703 82 0.0 0.0 0.00 0.00 0.00 73 1017.3
20260903003626 83 0.0 0.0 0.00 0.00 0.00 72 1017.1
20260903002550 84 0.0 0.0 0.00 0.00 0.00 70 1017.1
20260903001552 85 0.0 0.0 0.00 0.00 0.00 68 1017.1
20260903000449 86 0.0 0.0 0.00 0.00 0.00 67 1017.0
20260902235430 87 0.0 0.0 0.00 0.00 0.00 66 1017.0
20260902234353 87 0.0 0.0 0.00 0.00 0.00 66 1017.0
20260902233349 88 113 0.9 1.7 0.00 0.00 0.00 65 1017.0
20260902232246 89 0.0 0.0 0.00 0.00 0.00 64 1017.0
20260902231228 89 0.0 0.9 0.00 0.00 0.00 62 1017.0
20260902230151 89 0.0 0.0 0.00 0.00 0.00 61 1016.9
20260902225141 90 0.0 0.9 0.00 0.00 0.00 59 1017.0
20260902224056 91 0.0 0.0 0.00 0.00 0.00 59 1016.9
20260902223020 91 113 0.9 1.7 0.00 0.00 0.00 58 1016.8
20260902222002 91 113 0.0 0.9 0.00 0.00 0.00 56 1016.8
20260902220931 92 113 1.7 3.5 0.00 0.00 0.00 55 1016.8
20260902215848 93 113 0.9 1.7 0.00 0.00 0.00 55 1016.8
20260902214817 93 113 0.9 1.7 0.00 0.00 0.00 55 1016.9
20260902213758 93 113 2.6 3.5 0.00 0.00 0.00 55 1016.9
20260902212742 94 113 1.7 3.5 0.00 0.00 0.00 53 1017.1
20260902211704 95 113 0.9 0.9 0.00 0.00 0.00 52 1017.2
20260902210626 95 113 0.9 1.7 0.00 0.00 0.00 52 1017.2
20260902205549 95 113 1.7 2.6 0.00 0.00 0.00 52 1017.3
20260902204530 95 113 1.7 1.7 0.00 0.00 0.00 53 1017.4
20260902203453 95 113 0.9 1.7 0.00 0.00 0.00 52 1017.5
20260902202436 95 113 1.7 3.5 0.00 0.00 0.00 51 1017.7
20260902201412 94 113 1.7 1.7 0.00 0.00 0.00 53 1017.7
20260902200348 94 158 2.6 3.5 0.00 0.00 0.00 50 1017.8
20260902195251 94 158 0.9 2.6 0.00 0.00 0.00 54 1018.0
20260902194222 95 158 1.7 3.5 0.00 0.00 0.00 53 1018.0
20260902193149 94 158 1.7 1.7 0.00 0.00 0.00 57 1018.1
20260902192131 94 158 1.7 1.7 0.00 0.00 0.00 55 1018.1
20260902191113 95 158 0.9 1.7 0.00 0.00 0.00 57 1018.2
20260902190050 94 158 0.9 1.7 0.00 0.00 0.00 56 1018.3
20260902184947 0 158 2.6 3.5 0.00 0.00 0.00 1018.5
20260902183928 93 158 0.0 0.9 0.00 0.00 0.00 55 1018.6
20260902182851 94 158 0.0 0.9 0.00 0.00 0.00 55 1018.9
20260902181828 94 158 1.7 2.6 0.00 0.00 0.00 55 1018.9
20260902180751 93 158 2.6 5.2 0.00 0.00 0.00 56 1018.9
20260902175808 93 0.0 0.0 0.00 0.00 0.00 55 1018.9
20260902174730 93 158 0.9 1.7 0.00 0.00 0.00 57 1019.0
20260902173631 92 158 1.7 2.6 0.00 0.00 0.00 58 1019.4
20260902172554 92 158 0.0 0.9 0.00 0.00 0.00 58 1019.4
20260902171518 90 158 0.9 2.6 0.00 0.00 0.00 58 1019.6
20260902170500 91 158 0.9 0.9 0.00 0.00 0.00 62 1019.6
20260902165416 91 158 1.7 2.6 0.00 0.00 0.00 61 1019.6
20260902164357 91 158 0.9 1.7 0.00 0.00 0.00 61 1019.7
20260902163322 91 158 0.9 0.9 0.00 0.00 0.00 62 1019.8
20260902162306 90 0.0 0.9 0.00 0.00 0.00 62 1019.8
20260902161225 89 0.0 0.9 0.00 0.00 0.00 62 1019.8
20260902160148 89 158 1.7 1.7 0.00 0.00 0.00 64 1019.9
20260902155130 89 158 1.7 2.6 0.00 0.00 0.00 61 1019.9
20260902154046 88 0.0 0.0 0.00 0.00 0.00 66 1020.1
20260902153015 88 158 0.9 1.7 0.00 0.00 0.00 62 1020.1
20260902151957 88 0.0 0.9 0.00 0.00 0.00 64 1020.1
20260902150920 87 0.0 0.0 0.00 0.00 0.00 66 1020.1
20260902145901 87 158 0.9 1.7 0.00 0.00 0.00 67 1020.1
20260902144825 86 158 1.7 3.5 0.00 0.00 0.00 68 1020.1
20260902143747 86 158 0.0 0.9 0.00 0.00 0.00 66 1019.9
20260902142729 86 0.0 0.9 0.00 0.00 0.00 67 1019.9
20260902141652 86 158 0.9 1.7 0.00 0.00 0.00 66 1019.9
20260902140633 85 158 0.9 1.7 0.00 0.00 0.00 67 1019.8
20260902135556 84 158 0.0 1.7 0.00 0.00 0.00 70 1019.8
20260902134558 84 158 0.9 1.7 0.00 0.00 0.00 70 1019.8
20260902133515 83 158 0.9 1.7 0.00 0.00 0.00 72 1019.6
20260902132418 83 0.0 0.0 0.00 0.00 0.00 73 1019.6
20260902131414 83 158 0.0 0.9 0.00 0.00 0.00 73 1019.6
20260902130316 82 0.0 0.0 0.00 0.00 0.00 73 1019.6
20260902125338 81 0.0 0.9 0.00 0.00 0.00 75 1019.6
20260902124220 81 0.0 0.9 0.00 0.00 0.00 76 1019.6
20260902123201 80 0.0 0.0 0.00 0.00 0.00 78 1019.6
20260902122126 78 0.0 0.0 0.00 0.00 0.00 81 1019.6
20260902121101 77 0.0 0.0 0.00 0.00 0.00 83 1019.4
20260902120024 76 0.0 0.0 0.00 0.00 0.00 84 1019.4
20260902114948 74 0.0 0.0 0.00 0.00 0.00 90 1019.4
20260902113928 73 0.0 0.0 0.00 0.00 0.00 91 1019.1
20260902112850 73 0.0 0.0 0.00 0.00 0.00 91 1019.1
20260902111832 73 0.0 0.0 0.00 0.00 0.00 91 1018.9
20260902110748 73 0.0 0.0 0.00 0.00 0.00 91 1018.9
20260902105730 73 0.0 0.0 0.00 0.00 0.00 91 1018.9
20260902104647 73 0.0 0.0 0.00 0.00 0.00 91 1018.9
20260902103628 73 0.0 0.0 0.00 0.00 0.00 90 1018.9
20260902102551 73 0.0 0.0 0.00 0.00 0.00 90 1018.9
20260902101532 73 0.0 0.0 0.00 0.00 0.00 90 1018.9
20260902100455 73 0.0 0.0 0.00 0.00 0.00 89 1018.9
20260902095418 73 0.0 0.0 0.00 0.00 0.00 89 1018.7
20260902094354 74 0.0 0.0 0.00 0.00 0.00 89 1018.7
20260902093323 74 0.0 0.0 0.00 0.00 0.00 89 1018.9
20260902092246 74 0.0 0.0 0.00 0.00 0.00 89 1018.9
20260902091247 74 0.0 0.0 0.00 0.00 0.00 89 1019.0
20260902090149 74 0.0 0.0 0.00 0.00 0.00 89 1019.1
20260902085119 74 0.0 0.0 0.00 0.00 0.00 89 1019.1
20260902084054 74 0.0 0.0 0.00 0.00 0.00 89 1019.0
20260902083018 74 0.0 0.0 0.00 0.00 0.00 90 1019.0
20260902082001 74 0.0 0.0 0.00 0.00 0.00 90 1019.0
20260902080923 74 0.0 0.0 0.00 0.00 0.00 90 1018.9
20260902075847 74 0.0 0.0 0.00 0.00 0.00 90 1018.9
20260902074828 74 0.0 0.0 0.00 0.00 0.00 90 1018.7
20260902073752 73 0.0 0.0 0.00 0.00 0.00 89 1018.9